Theta_e
337 336 334 340 338 338 337 337 339 341 342 346 347 346 344 343 343 338 336 341 343 342 342 340 340 341 341 340 339 340 340 340 339 338 339 340 340 341 341 342 342 342 343 345 345 345 346 346 346 346 347 347 347 347 347 347 347 346 346 346 345 346 345 345 344 343 342 342 342 343 342 345 346 345 345 345 345 345 342 342 341 339 338 341 343
337 335 333 333 338 338 339 340 341 343 346 346 346 345 345 344 342 340 340 340 343 343 343 341 340 338 338 339 340 340 340 342 341 341 339 340 340 339 340 341 342 344 344 345 345 345 345 345 345 345 346 347 346 346 346 346 346 345 345 344 344 344 344 343 343 343 343 342 343 342 342 342 343 345 344 345 344 343 341 341 340 336 336 342 341
337 334 333 334 340 337 339 340 342 346 346 346 347 346 344 343 341 340 341 341 341 341 342 343 342 343 340 338 341 342 340 341 341 340 341 340 340 340 340 340 343 342 343 343 343 343 343 343 344 344 346 346 346 345 345 345 345 344 344 344 343 343 343 343 343 342 342 342 343 342 341 343 345 345 345 345 345 343 341 341 340 339 336 340 340
334 334 333 338 342 341 340 339 342 347 346 347 346 345 342 341 340 340 340 340 339 342 343 343 343 343 342 340 341 342 341 341 341 341 342 341 340 341 340 341 342 342 342 342 342 343 343 344 345 345 345 345 344 345 344 344 343 344 344 343 343 342 342 342 342 341 341 340 339 338 336 334 341 343 344 343 343 342 340 340 340 339 340 340 340
334 333 334 336 335 340 339 340 343 346 345 346 346 345 343 341 340 340 339 339 343 344 345 344 344 345 344 343 343 343 342 342 343 344 343 344 343 342 342 342 341 342 343 344 344 345 344 344 345 345 345 345 344 343 343 343 343 343 343 343 343 342 342 341 341 340 340 339 338 336 333 334 335 341 342 343 341 339 339 338 338 339 338 338 338
334 333 333 331 330 337 342 342 340 345 346 346 346 346 342 340 340 338 336 336 339 340 344 345 345 346 344 342 342 344 344 344 344 343 343 343 343 343 342 342 342 342 345 345 344 344 344 344 344 344 345 344 343 343 342 343 344 343 343 342 342 342 341 340 340 339 338 337 336 332 332 333 335 337 342 341 341 338 338 337 337 338 336 336 336
333 331 331 331 330 335 341 341 340 344 345 346 345 344 341 341 340 336 335 338 341 341 342 343 345 345 345 344 344 344 345 345 344 344 344 344 344 342 341 341 342 342 343 344 344 344 343 344 344 344 344 344 343 342 342 343 342 342 341 341 342 341 341 340 338 337 336 333 330 330 331 333 334 335 341 341 340 339 337 338 338 338 337 336 336
332 331 331 330 332 337 341 342 343 345 345 345 345 345 341 341 338 338 338 337 340 340 341 341 344 345 345 345 345 345 344 344 345 344 344 344 344 343 341 342 343 343 343 343 342 342 342 344 344 344 344 343 343 342 342 341 342 342 340 341 341 340 339 338 337 336 334 329 328 328 329 329 330 332 338 338 338 338 337 336 335 335 335 334 332
332 332 332 331 332 340 342 344 344 345 344 345 345 345 343 340 339 338 336 336 337 339 341 341 344 345 345 345 345 344 344 344 344 343 344 344 343 343 343 342 342 342 343 343 345 344 344 344 344 343 344 343 342 342 342 342 342 341 340 340 340 339 338 337 336 334 331 329 329 329 328 328 328 330 336 336 336 335 335 334 336 334 334 333 331
331 330 331 330 329 339 340 343 341 342 344 344 344 345 343 340 340 338 336 336 336 340 342 341 343 344 344 344 344 344 344 343 343 342 342 343 343 343 342 342 342 343 343 343 344 344 344 343 343 343 343 342 342 341 341 342 341 341 341 340 340 338 337 335 333 331 327 327 327 329 333 335 329 330 334 336 335 334 333 334 335 333 333 332 332
332 330 330 329 330 339 342 343 344 343 343 344 345 345 344 341 340 338 336 336 337 336 342 344 343 343 344 344 344 344 343 343 342 342 342 342 342 341 341 342 341 342 343 343 343 343 343 343 342 343 342 342 342 341 341 341 341 341 340 339 338 337 336 334 331 326 326 326 327 327 332 335 329 329 336 336 335 333 335 334 334 332 331 331 331
334 330 330 329 338 339 342 343 343 342 343 343 345 344 345 341 340 338 336 337 336 336 339 342 342 342 344 344 343 342 342 342 341 341 341 341 341 341 341 341 340 341 341 342 341 341 342 342 342 342 341 341 340 341 340 341 340 340 339 338 337 336 334 332 327 326 325 325 326 327 326 326 326 332 336 336 336 334 332 331 331 331 331 330 330
334 332 330 330 332 338 341 343 342 342 342 343 344 344 344 341 340 339 337 337 337 337 337 340 342 343 343 342 342 342 341 341 341 340 340 340 340 340 340 340 340 340 340 341 341 341 341 340 341 341 340 340 340 340 340 340 339 339 338 337 336 335 333 331 325 325 324 323 324 323 323 324 326 334 334 334 334 333 333 332 331 329 328 327 327
335 334 330 331 332 341 339 340 341 342 343 342 344 343 343 342 342 340 337 336 336 336 337 338 341 342 341 341 340 340 340 339 339 339 339 339 339 339 340 340 339 339 340 340 340 340 340 341 340 340 339 339 339 339 339 339 339 338 336 335 334 332 330 328 327 322 323 322 323 322 322 326 326 331 332 333 333 332 330 328 327 328 329 329 329
334 335 331 331 333 334 339 337 339 340 342 343 343 343 342 341 340 339 337 336 336 335 337 338 342 341 340 340 339 339 340 340 340 340 340 340 339 340 340 340 339 339 339 339 339 339 339 341 340 339 339 339 339 339 338 338 337 336 335 334 332 330 327 322 322 320 321 322 321 321 320 322 333 332 331 331 329 329 329 329 329 329 329 328 326
335 335 334 332 335 334 333 338 336 337 338 340 341 342 341 339 339 337 337 337 336 336 336 338 341 341 341 341 341 341 340 340 339 339 340 340 339 339 339 339 338 339 339 339 339 339 339 340 339 338 338 338 338 338 338 337 336 335 333 332 330 329 326 323 319 318 318 320 320 320 319 322 330 330 330 331 330 329 329 328 328 328 327 327 326
336 336 336 337 337 333 332 333 333 334 334 335 336 338 339 339 339 337 338 339 339 338 339 339 340 340 341 340 340 339 339 338 339 339 340 339 338 338 338 338 338 338 338 338 338 338 338 339 338 337 337 337 337 337 336 335 334 333 332 331 330 328 325 322 319 316 318 319 318 319 319 324 329 330 327 327 328 328 328 328 325 327 327 327 327
335 336 337 338 337 332 331 330 331 331 330 332 333 335 337 339 338 337 337 340 341 341 341 341 341 340 339 338 339 339 339 338 338 338 338 338 338 338 338 336 337 336 337 337 337 337 337 337 337 336 336 335 335 335 335 334 333 332 330 330 328 325 323 320 316 315 318 321 317 319 318 330 326 325 327 328 328 327 328 327 328 327 325 325 325
334 336 337 337 336 334 334 331 328 329 329 328 328 332 333 335 335 335 336 339 339 338 337 336 336 336 336 335 335 334 333 333 333 334 335 334 333 331 334 336 336 336 336 336 337 337 337 336 335 335 334 334 334 333 333 332 331 330 329 327 324 322 321 318 313 314 315 318 318 317 320 331 328 328 328 328 328 328 327 327 326 325 326 325 324
332 335 336 337 337 336 336 334 332 331 329 327 327 328 330 331 333 334 334 335 334 334 333 332 329 328 328 329 328 327 327 326 327 326 329 331 330 328 332 336 336 336 336 336 335 335 336 335 334 333 333 332 331 331 331 331 330 329 327 324 321 318 314 312 311 312 312 316 318 316 330 333 328 328 327 326 327 327 326 326 326 325 325 323 324
331 333 334 336 337 336 336 335 335 333 333 331 328 327 329 329 329 329 329 329 330 330 329 325 323 322 322 322 323 321 320 320 320 320 323 322 322 325 329 334 336 336 335 334 335 334 335 335 334 333 331 328 325 324 324 327 327 326 325 321 317 312 311 310 310 312 312 313 316 317 332 331 328 327 327 327 327 326 325 325 325 324 323 324 324
329 331 333 335 336 336 336 336 335 336 335 333 331 326 326 329 326 325 324 325 326 325 323 322 325 319 321 320 319 320 318 317 319 325 320 321 322 323 325 330 334 334 334 334 333 333 333 334 333 331 329 325 319 314 315 318 321 322 319 316 311 308 309 309 310 309 311 311 314 321 333 330 327 327 327 326 326 324 324 324 325 324 324 324 322
327 330 331 333 335 336 336 336 336 336 335 334 333 331 330 330 327 323 323 324 323 321 320 320 318 319 317 317 317 317 316 316 316 318 318 320 321 323 325 328 330 330 331 332 332 332 332 331 329 327 325 320 314 312 313 311 312 316 314 312 307 308 308 309 309 309 310 310 310 324 330 330 327 328 329 328 326 326 325 324 324 324 324 323 322
327 328 329 332 334 335 335 336 335 335 335 334 333 331 331 330 326 322 322 320 319 319 318 317 318 317 317 316 317 315 315 316 323 324 322 317 318 319 321 322 323 323 322 321 322 323 325 324 325 321 316 312 311 312 311 310 311 311 311 310 307 308 309 307 307 308 309 310 310 323 328 330 327 326 327 326 326 324 323 323 322 322 322 322 322
329 329 328 329 332 334 334 335 336 335 335 334 332 331 331 330 328 324 321 319 319 318 318 318 316 316 316 317 315 315 316 316 316 315 315 316 317 318 317 317 316 316 317 314 311 309 310 308 311 313 311 312 312 311 312 312 310 311 310 308 307 306 310 308 307 308 309 309 311 321 324 329 329 329 331 328 328 325 324 323 323 323 322 322 321
329 328 328 329 331 334 334 334 335 335 334 333 332 331 330 329 328 326 322 321 319 318 317 318 317 316 316 316 316 316 316 317 315 313 313 315 316 315 314 313 313 313 314 312 309 308 308 308 309 311 311 310 311 310 309 309 311 309 309 307 306 306 306 308 307 308 309 309 309 318 322 327 329 331 330 329 329 327 326 324 324 324 324 323 323
328 328 329 330 331 333 333 334 333 333 334 333 333 331 330 330 329 327 324 322 321 319 318 317 318 317 316 316 318 316 316 316 315 314 315 312 314 314 315 313 313 313 312 312 308 308 308 310 310 310 309 311 309 305 307 308 308 308 306 306 306 307 306 307 307 307 307 308 311 316 320 324 327 329 330 331 330 329 329 327 327 328 327 326 325
329 328 329 331 330 331 332 334 332 332 332 333 332 330 330 330 329 327 326 323 321 321 319 319 318 317 317 317 316 317 317 315 315 314 313 311 313 312 312 313 312 312 312 310 309 308 308 308 309 309 310 308 309 305 306 305 304 305 309 306 307 307 306 307 305 306 307 307 308 313 317 320 324 326 329 330 330 330 329 329 330 329 329 328 328
329 329 329 330 331 331 332 332 332 331 332 333 331 330 330 329 329 328 326 322 322 322 321 319 318 317 317 317 316 317 314 316 315 315 311 314 312 312 312 313 311 311 312 311 309 306 306 307 309 307 306 306 305 307 305 307 305 304 308 307 306 306 306 306 305 305 306 308 309 311 315 318 322 325 328 329 331 330 330 330 329 329 329 330 330
330 330 329 329 331 332 332 331 332 332 332 333 331 330 330 328 329 328 328 324 323 321 319 319 319 318 317 317 317 318 318 317 315 312 313 313 312 311 312 312 312 311 311 313 307 306 306 305 306 307 309 307 308 306 305 307 307 305 304 306 306 306 305 306 307 306 305 306 308 309 313 316 319 323 326 327 329 331 330 330 330 330 330 331 332
330 330 330 330 330 332 331 331 332 331 332 332 331 330 330 329 329 328 328 327 324 321 320 320 319 319 319 317 317 317 317 317 316 315 314 313 311 311 312 310 311 310 310 312 307 309 306 307 307 307 306 305 306 306 306 306 306 306 303 304 305 304 304 304 304 305 306 308 308 307 309 313 316 319 322 325 327 329 330 330 330 331 331 331 332
329 330 331 331 330 331 332 332 332 332 331 332 331 331 330 330 329 329 328 327 326 322 321 320 319 320 319 318 317 317 316 317 316 315 315 313 311 311 310 310 313 309 310 310 310 307 307 307 307 307 307 307 306 305 304 307 308 307 305 305 304 306 305 304 304 305 306 307 307 309 309 310 313 316 318 320 324 326 328 329 330 330 330 331 333
330 330 331 330 330 331 331 332 332 331 331 331 331 331 331 330 329 329 328 327 327 323 321 321 321 320 320 319 318 318 317 318 316 316 315 314 313 311 311 311 312 311 310 309 308 307 307 307 308 306 307 307 306 307 305 305 306 308 306 307 304 307 305 305 307 306 306 307 308 309 309 310 310 312 314 316 319 322 325 327 328 329 330 330 331
328 329 330 329 330 331 332 333 332 331 330 332 332 331 331 331 330 330 328 328 326 325 323 322 322 321 320 320 318 318 317 318 317 315 315 314 313 312 313 312 312 309 309 308 309 309 309 307 308 308 308 307 307 306 305 308 306 304 305 304 304 305 304 306 306 307 306 306 306 306 306 306 308 311 312 313 315 317 321 323 324 325 326 327 328
325 325 327 328 328 329 331 333 331 332 330 331 331 332 332 331 331 330 329 328 327 325 323 322 322 322 321 320 319 318 317 317 317 317 315 314 313 312 311 314 312 309 309 309 310 307 307 310 307 307 305 305 304 303 304 305 304 307 307 305 307 306 305 307 306 307 308 308 307 305 306 306 305 306 309 309 309 311 315 317 320 321 322 323 324
325 325 326 326 326 327 329 331 331 332 331 331 332 333 332 332 331 327 330 329 327 326 324 323 323 323 322 321 320 320 319 318 318 317 316 314 314 314 314 313 311 309 310 307 307 310 309 309 306 307 307 307 304 306 304 304 304 307 308 309 310 309 308 308 309 309 309 306 307 307 306 305 304 304 305 303 304 306 311 313 315 317 318 319 321
325 325 325 325 325 326 326 329 331 332 332 332 332 332 332 332 331 330 330 329 328 327 326 325 324 324 323 323 324 323 322 321 320 319 318 315 314 314 314 313 310 310 310 307 308 310 309 310 307 304 306 307 305 306 308 307 310 311 310 310 311 310 310 311 311 311 308 306 306 306 305 304 304 305 303 303 303 303 306 309 312 313 313 314 317
323 324 325 325 325 326 326 327 330 331 332 332 332 332 332 332 331 330 328 329 329 329 328 328 326 325 325 325 326 325 323 323 322 320 319 318 316 315 314 312 311 310 310 308 310 307 306 309 310 304 306 306 306 309 310 310 309 310 311 311 311 310 311 310 310 305 304 305 304 302 303 301 302 302 302 301 301 302 302 305 308 309 309 310 313
324 323 324 325 325 326 325 324 326 328 330 332 331 332 332 331 331 330 329 329 329 329 329 328 327 327 326 326 327 326 324 324 323 320 320 319 316 313 313 310 310 310 311 310 308 306 306 305 307 307 305 309 312 312 311 309 309 308 308 309 308 308 308 306 304 301 300 299 299 302 299 301 298 299 300 300 299 300 301 302 302 303 304 307 310
323 324 322 323 324 325 324 325 325 327 328 330 331 330 330 328 326 328 328 327 329 327 328 328 328 327 327 327 328 328 326 324 323 322 321 319 317 314 313 309 310 310 310 310 309 308 309 307 308 309 310 310 310 312 310 307 304 303 305 305 304 303 303 302 299 300 297 297 299 297 299 298 297 297 297 298 298 298 300 300 300 302 302 304 307
322 323 322 322 323 324 323 322 324 325 327 328 329 329 326 326 328 327 326 328 328 328 327 328 328 328 327 327 327 327 327 325 323 322 321 318 318 316 313 310 310 311 311 312 313 312 312 312 311 311 312 311 310 309 307 306 305 304 300 301 304 300 301 298 299 298 297 297 296 296 296 297 296 296 296 295 296 296 297 298 299 300 300 301 302
320 321 322 322 323 323 323 323 323 324 326 328 329 329 330 329 327 328 328 328 328 326 327 328 328 327 327 327 327 327 327 326 323 323 321 321 320 318 315 314 312 312 313 314 312 309 311 311 312 311 310 311 309 306 305 305 301 302 305 305 300 300 298 297 296 297 295 295 294 295 294 294 295 294 294 294 294 295 295 296 296 297 298 299 300
320 320 322 322 322 322 323 323 324 324 325 326 328 328 330 330 330 329 329 327 328 330 330 329 328 328 327 327 327 327 327 326 325 323 323 322 321 320 319 317 313 313 313 313 311 309 310 310 311 313 309 307 308 305 304 307 305 302 304 303 299 300 300 295 292 293 293 293 293 295 293 293 293 293 293 292 294 294 295 294 295 296 297 298 299
319 320 320 321 322 322 323 323 324 324 324 325 324 328 328 329 329 327 328 329 327 324 328 328 328 328 327 328 327 327 327 326 326 324 323 323 322 321 320 318 316 313 314 314 311 310 308 308 310 311 311 307 305 307 304 305 307 307 303 301 299 298 300 295 294 298 294 296 294 293 293 294 292 292 293 296 296 296 296 293 295 295 296 297 298
319 320 320 320 322 322 323 323 324 324 324 324 324 326 324 322 324 320 319 321 320 325 326 326 327 326 327 327 327 327 327 326 327 326 324 324 323 322 320 319 317 315 315 315 314 313 311 311 311 310 311 312 308 304 304 306 308 309 308 302 300 297 299 297 300 301 295 300 297 292 294 294 293 293 293 296 294 296 295 295 296 295 295 295 296
317 320 321 321 321 322 323 323 324 324 324 324 325 325 324 325 323 323 320 322 322 321 321 324 326 326 326 328 327 327 327 326 327 327 325 323 324 323 321 319 317 315 314 315 316 313 310 309 311 313 311 311 311 304 305 304 306 307 307 308 305 304 302 299 303 300 298 296 294 294 294 293 290 293 295 296 296 296 295 296 295 295 295 295 295
316 318 319 320 321 322 322 323 324 324 324 323 324 322 324 324 325 325 325 324 323 324 326 327 327 328 327 326 327 327 327 327 326 327 326 324 324 323 322 320 319 317 314 315 315 314 313 313 312 311 311 308 307 309 309 307 303 303 304 304 304 302 305 303 300 298 298 298 298 298 298 292 294 293 293 294 294 295 296 294 295 294 294 294 293
314 316 318 320 320 321 321 322 323 322 324 323 323 323 324 324 324 325 325 325 325 325 326 325 324 324 325 326 326 326 327 327 327 326 326 325 323 323 322 321 320 319 315 315 315 314 313 312 312 312 309 309 310 311 309 306 307 303 301 303 303 302 303 303 303 302 299 295 299 298 294 293 295 293 292 293 295 295 295 295 294 294 293 294 292
312 314 316 318 320 321 320 321 322 322 322 322 321 322 323 324 324 324 324 324 325 324 319 317 321 322 324 325 325 325 325 326 327 326 326 325 322 323 322 321 321 320 314 315 313 313 314 313 311 310 310 309 311 311 309 307 307 308 301 300 300 300 299 300 299 299 297 293 297 294 296 294 292 292 290 292 291 294 294 293 292 292 291 292 292
311 313 314 315 317 319 319 319 320 322 322 321 320 321 322 321 323 323 323 323 322 319 315 316 318 320 323 324 324 325 325 325 326 326 325 325 324 322 322 322 321 320 314 316 315 314 314 313 312 312 311 310 309 308 309 308 308 307 306 302 299 297 297 297 296 296 296 296 297 294 296 294 294 291 293 292 293 295 295 292 292 291 291 291 292
307 311 312 313 315 317 318 318 320 321 320 321 320 320 321 322 322 322 322 322 321 320 317 315 316 318 321 322 323 324 324 324 324 324 325 325 324 321 322 322 321 316 315 316 315 314 313 313 313 311 310 310 308 308 306 305 306 305 304 304 303 302 301 299 297 295 295 292 291 292 292 293 293 295 292 291 294 295 293 290 289 291 290 290 291
Wind_Speed
5 6 3 8 8 9 8 7 7 6 7 10 9 8 11 11 11 9 8 10 10 12 12 12 11 12 13 13 12 14 14 14 14 14 14 13 13 14 13 13 14 14 15 16 16 17 17 17 17 17 18 18 18 18 18 18 19 19 19 19 19 19 19 19 19 18 19 19 19 19 18 18 19 20 19 19 19 18 15 16 14 12 8 13 18
10 5 4 5 10 10 10 9 7 7 9 9 10 9 9 10 11 10 8 10 12 12 12 12 12 12 12 12 13 13 14 15 15 16 15 14 14 14 13 14 15 16 16 16 16 16 16 16 17 17 17 18 18 18 18 18 18 19 18 18 18 19 19 19 19 18 18 18 19 19 18 19 19 19 19 19 18 18 14 16 16 9 7 16 18
7 5 5 5 11 11 9 8 10 9 8 11 10 9 10 10 10 8 8 9 11 12 12 12 12 12 12 12 14 13 13 14 14 15 15 15 15 15 14 14 15 16 15 16 16 16 16 16 16 17 17 17 17 18 18 18 18 19 18 18 19 19 20 19 18 18 17 18 17 16 17 18 18 19 19 19 18 19 15 16 15 15 11 19 17
8 5 4 6 10 11 11 10 11 10 10 12 11 8 11 10 9 7 9 8 11 11 11 11 11 13 13 12 12 14 14 14 13 14 15 15 15 14 14 15 15 14 15 15 16 16 15 16 17 16 17 17 17 18 18 17 18 18 18 18 19 19 19 18 18 17 17 16 16 13 7 6 11 18 19 18 18 18 15 17 18 18 19 17 19
7 5 5 4 5 8 11 10 11 11 11 11 10 9 11 11 10 9 8 9 12 11 10 10 10 12 13 12 12 11 13 14 14 15 15 14 14 15 15 14 15 15 16 16 16 16 17 16 16 17 17 17 17 17 17 17 18 18 18 18 19 19 18 17 17 16 16 15 13 8 6 6 6 15 17 18 17 15 15 16 17 17 18 18 18
6 5 4 4 4 5 9 9 11 11 11 12 11 9 11 11 10 10 8 9 10 11 11 10 10 11 13 12 12 13 13 14 14 15 14 15 15 15 14 15 15 15 16 16 16 17 16 16 15 16 17 17 16 16 17 17 18 18 18 18 18 17 17 16 16 15 13 13 11 7 7 7 6 8 17 17 16 14 16 17 17 17 16 17 17
6 4 4 4 3 4 8 9 10 10 11 11 11 10 11 10 10 9 8 9 11 9 10 10 12 11 12 13 13 13 13 13 15 14 14 14 15 14 14 14 14 15 16 16 16 15 15 15 15 16 16 16 16 16 16 17 17 17 17 18 17 17 16 16 15 14 12 8 6 6 6 7 6 4 17 16 17 16 17 18 17 17 17 17 17
4 4 4 3 3 5 7 8 10 10 11 12 11 8 10 11 10 7 8 9 11 9 9 9 11 11 12 13 14 13 14 15 15 14 14 14 15 14 14 14 15 15 15 15 15 15 15 16 16 16 17 16 16 16 17 17 17 16 17 17 16 16 15 15 14 13 12 7 6 6 6 6 6 5 16 17 17 17 17 16 16 16 16 16 13
5 4 4 4 3 6 6 5 12 11 11 11 10 9 9 12 10 9 7 6 9 10 9 9 11 12 12 12 14 14 14 15 14 14 14 15 15 14 13 14 14 15 15 15 15 15 15 15 16 16 16 16 16 17 16 17 16 16 17 17 16 15 15 14 13 11 7 6 6 6 6 5 5 6 14 17 17 17 16 12 12 15 16 13 14
4 4 4 4 3 5 5 5 8 10 10 11 11 10 9 12 10 9 7 7 8 10 10 9 10 11 12 12 13 13 14 14 14 13 13 15 14 14 14 14 14 14 15 15 16 16 16 16 16 16 16 16 16 16 16 16 16 16 16 17 16 15 15 14 13 9 6 6 6 6 6 7 4 5 11 15 16 15 13 9 9 8 9 14 15
5 4 4 3 3 6 6 7 6 8 10 10 11 10 8 11 11 10 8 7 6 8 11 9 9 10 12 12 13 13 13 13 13 12 13 13 14 14 13 12 13 14 14 15 15 16 16 16 16 16 16 15 15 15 15 15 15 15 15 15 14 14 13 12 9 6 6 6 6 5 5 8 5 4 12 15 15 14 9 11 12 12 13 14 15
6 4 4 3 4 7 7 6 7 9 9 10 10 10 8 8 11 11 9 7 7 7 10 10 9 10 11 12 13 12 12 12 12 11 12 13 13 13 12 12 12 13 14 14 15 15 16 15 16 15 15 14 14 15 14 14 14 14 14 14 14 12 11 10 6 6 5 5 5 4 4 4 3 7 14 15 14 13 12 13 13 13 14 14 14
6 4 3 3 3 6 7 7 7 7 7 10 10 10 8 9 11 11 9 8 6 8 7 10 11 11 11 11 12 11 11 11 11 11 11 12 12 12 12 12 11 12 13 14 14 14 14 15 15 15 15 14 14 14 14 14 14 13 13 13 12 12 10 9 5 6 5 4 4 5 4 4 3 12 12 12 13 13 14 14 13 12 12 11 11
9 5 3 3 3 6 8 7 7 6 5 9 10 8 8 11 11 10 9 8 6 7 8 8 10 11 11 10 11 11 10 10 10 10 11 11 11 11 12 11 11 11 12 13 13 14 14 15 15 15 15 15 14 13 13 13 13 12 12 12 11 10 8 6 5 5 5 5 4 4 4 3 4 10 11 12 12 13 11 11 10 11 13 13 13
9 7 4 3 3 4 8 7 6 4 4 8 11 9 9 10 9 9 9 8 7 6 7 8 10 9 9 10 10 10 11 10 10 10 10 11 11 11 11 11 11 11 12 12 13 13 13 14 14 14 14 13 13 13 12 12 12 11 11 10 9 8 7 5 5 4 5 4 4 4 5 4 8 11 11 11 9 8 10 10 11 11 11 12 11
8 7 4 3 3 4 4 6 7 6 6 8 9 9 9 9 8 8 9 8 7 7 6 7 11 11 11 11 11 11 10 10 10 9 8 9 10 10 11 11 10 11 11 12 12 12 13 14 13 13 12 12 12 12 11 11 11 10 10 9 8 7 8 5 5 4 5 5 4 4 4 3 9 9 10 9 9 10 9 10 11 11 9 9 9
8 6 6 5 5 4 4 4 5 7 7 8 8 9 8 8 7 7 6 6 6 5 6 7 10 10 11 11 11 10 10 9 9 8 7 8 10 9 10 10 10 10 11 11 11 12 13 13 13 13 12 12 11 11 10 10 9 9 8 8 7 7 7 6 5 4 5 4 3 4 5 4 6 9 9 9 9 9 9 10 7 10 12 10 10
8 8 7 6 6 4 4 4 4 4 4 6 8 9 8 8 7 5 4 5 7 7 8 10 10 10 9 9 9 9 9 9 8 8 8 8 7 7 7 9 10 10 10 10 11 11 12 12 12 13 13 12 11 10 10 9 8 8 7 7 6 7 6 6 4 4 4 4 5 3 4 2 8 8 8 9 8 8 9 7 10 8 7 8 9
9 8 7 6 7 5 5 5 4 4 4 4 4 6 9 8 8 6 6 7 7 8 9 9 9 8 8 8 9 9 9 8 8 8 8 8 8 8 8 7 9 10 10 10 10 10 10 11 11 12 12 13 12 11 10 8 7 7 7 6 6 6 6 4 3 4 4 4 4 4 5 6 8 8 8 8 8 9 7 8 7 6 7 7 7
8 9 7 6 6 6 5 5 5 5 4 3 4 4 7 9 8 7 7 7 7 8 8 9 9 9 8 8 9 7 7 6 8 6 8 8 7 6 7 6 7 9 9 9 8 8 9 10 10 11 11 11 12 11 10 9 7 6 6 6 5 6 4 3 3 3 3 3 3 4 4 5 5 7 6 5 6 6 7 7 5 7 6 5 7
7 9 8 7 6 6 6 6 6 5 5 4 3 4 5 8 7 9 8 8 8 8 8 9 9 8 7 7 7 5 4 4 4 4 6 4 7 8 8 8 7 6 8 8 8 7 8 9 10 10 9 9 8 9 9 10 9 7 6 5 5 4 2 2 2 2 3 3 4 4 8 6 4 3 5 6 7 6 5 4 5 5 5 6 7
8 9 8 8 8 7 6 7 6 7 5 5 3 3 4 5 5 5 5 6 7 7 6 5 6 4 6 5 4 3 4 4 4 5 4 4 5 8 8 7 7 8 7 8 7 6 7 9 9 9 9 9 8 5 5 6 8 7 6 5 4 2 2 2 2 2 1 2 2 4 6 7 4 4 5 5 3 4 4 5 5 4 5 5 5
10 8 9 9 8 7 7 8 7 7 7 5 4 4 4 4 4 5 4 6 5 4 4 4 4 4 4 4 3 3 4 3 3 3 4 5 5 7 7 7 7 8 8 8 8 8 8 8 8 8 7 7 5 4 4 4 4 5 5 3 2 2 1 2 2 1 1 1 2 5 6 5 6 8 6 6 4 7 5 3 3 6 5 5 5
8 8 8 7 7 6 8 8 8 8 8 5 3 4 4 4 4 4 4 4 4 4 4 4 4 4 4 4 3 3 3 3 4 6 5 4 4 6 7 8 7 7 7 5 6 6 6 7 7 6 5 3 3 4 3 3 3 3 3 3 2 1 0 1 2 2 3 3 3 5 5 5 4 4 2 1 2 2 1 0 0 2 2 3 4
7 6 6 7 10 8 7 7 7 9 8 6 5 4 4 4 4 4 4 4 5 4 5 4 4 4 4 4 3 3 3 2 2 2 3 3 3 2 2 2 2 2 4 3 2 2 3 2 2 4 3 3 4 3 3 3 3 3 3 2 2 1 0 0 1 2 3 3 3 6 6 7 7 6 8 5 5 2 3 2 2 4 3 2 2
6 8 9 8 9 9 7 6 7 10 8 7 7 6 5 4 5 5 4 4 5 4 4 4 4 4 4 4 4 4 3 3 2 2 2 2 2 2 2 1 2 2 1 1 1 1 2 2 2 2 2 2 2 2 2 2 2 3 3 2 2 2 1 1 1 2 3 4 3 6 6 7 8 9 9 7 6 4 4 6 6 4 5 6 6
8 8 7 7 9 8 8 7 8 8 11 6 5 5 6 5 5 5 5 5 4 5 5 4 4 4 4 4 5 3 3 3 2 2 2 1 2 2 2 1 1 1 1 1 1 1 1 1 1 1 1 2 2 2 2 2 1 3 2 2 1 1 1 1 1 2 2 3 4 6 6 7 8 9 10 11 9 8 7 8 10 11 12 10 8
7 8 7 7 8 11 9 8 9 9 8 7 7 7 6 6 6 6 5 5 5 5 5 5 4 5 4 4 4 5 5 3 3 2 3 2 2 2 1 1 1 1 1 1 1 0 1 1 1 1 1 1 2 2 1 1 1 2 2 2 1 1 0 0 2 3 3 3 3 5 7 7 7 7 10 11 12 12 10 9 12 14 13 13 14
10 9 8 8 9 9 9 12 10 10 7 7 8 6 7 6 5 6 6 5 5 5 5 5 5 4 4 4 4 5 4 5 4 4 2 3 2 2 2 2 1 1 1 1 1 1 1 0 1 1 1 0 1 2 2 1 1 1 1 1 2 2 3 2 1 2 2 3 3 5 7 8 7 8 10 11 12 13 13 14 14 14 14 14 12
11 9 9 9 8 9 11 12 10 9 8 8 7 7 7 8 7 7 6 5 5 5 4 5 5 5 5 5 5 5 5 5 5 3 4 4 3 2 2 2 2 1 2 2 2 2 2 1 0 0 0 0 1 2 2 3 4 2 1 1 2 1 2 3 3 3 2 3 3 4 7 7 7 8 9 10 12 13 14 15 16 17 16 16 16
9 11 10 9 8 9 11 10 9 9 7 9 8 7 7 8 6 6 6 6 6 5 5 5 5 5 5 5 5 4 5 4 5 5 4 4 3 3 4 2 2 3 3 4 2 3 2 2 2 2 2 1 2 1 1 2 3 2 1 2 2 2 2 2 3 3 3 3 3 3 4 6 7 7 8 10 12 13 14 15 17 18 18 19 19
11 11 9 8 8 10 10 10 10 9 9 8 8 8 7 7 6 6 6 6 6 5 5 5 5 5 5 6 5 5 4 4 5 4 4 4 4 4 3 3 4 3 4 3 3 2 2 2 1 1 1 1 1 1 0 1 3 2 1 2 2 4 3 2 3 3 3 4 4 4 4 5 6 7 6 8 10 11 12 14 16 18 19 20 20
9 10 9 9 10 10 10 10 10 9 10 9 8 8 7 7 7 7 6 6 6 5 6 6 6 5 5 6 6 5 5 5 5 6 5 5 5 5 4 4 5 3 3 3 3 2 2 2 1 0 0 0 1 2 2 1 3 4 3 3 3 4 2 3 4 3 5 5 5 5 5 4 4 6 8 7 8 10 12 13 14 15 16 17 19
10 8 10 11 9 8 8 8 10 11 11 9 8 8 8 7 6 6 6 6 6 6 6 5 6 5 5 6 6 6 6 5 5 5 5 5 5 5 5 5 5 3 3 3 3 3 3 2 3 0 2 1 3 2 3 5 4 3 3 3 3 3 3 4 4 4 3 3 3 4 4 4 4 4 4 7 7 9 11 12 13 14 15 16 16
9 8 12 13 11 10 8 8 10 11 11 11 10 9 8 7 7 7 7 7 6 6 6 6 5 6 5 5 6 6 6 6 6 6 6 5 5 5 5 6 3 3 4 3 3 3 3 5 2 3 2 1 1 2 1 3 3 5 5 3 4 4 4 5 4 5 5 4 4 4 3 3 3 3 3 4 5 7 9 11 12 13 14 15 16
12 11 11 10 12 10 10 10 11 12 12 11 10 9 9 8 7 7 7 7 6 7 7 7 6 6 6 6 6 6 6 6 6 6 5 5 6 5 6 4 4 4 3 3 3 4 4 3 3 3 3 4 2 4 0 3 3 5 4 4 4 3 5 5 5 5 4 4 5 5 4 3 3 3 3 3 3 4 8 9 12 13 13 14 16
11 11 12 10 11 11 11 12 13 13 12 11 10 9 8 9 8 8 8 8 8 7 7 7 7 7 6 6 7 7 7 7 7 7 6 6 6 6 6 5 4 5 4 4 4 4 4 4 3 3 3 4 2 4 4 3 4 4 4 4 4 4 4 4 5 5 4 4 5 4 4 4 3 3 4 4 4 5 5 8 10 11 12 13 15
10 11 11 12 12 11 11 12 11 12 11 11 11 9 8 8 8 7 8 8 9 8 7 7 8 8 7 7 7 7 7 7 7 7 7 7 6 6 5 5 5 5 5 5 5 3 3 3 4 2 3 3 4 4 5 3 3 3 4 4 5 4 4 5 5 4 4 5 4 4 4 3 3 3 4 4 4 4 5 6 8 9 9 11 14
10 12 11 10 9 10 10 11 11 10 11 10 10 9 8 8 8 8 8 9 8 8 8 8 8 7 8 8 8 8 8 8 8 7 7 6 6 6 5 5 5 5 5 5 3 3 3 2 4 3 2 4 4 3 3 2 3 3 4 5 5 5 5 5 5 5 4 3 4 4 3 3 3 3 4 4 4 4 4 5 5 5 6 10 12
10 10 11 10 11 11 10 10 10 10 9 9 9 9 8 8 8 7 8 9 8 8 8 8 7 7 8 9 9 8 8 8 8 8 8 7 6 6 6 5 5 5 5 5 5 5 6 5 6 5 4 3 3 3 1 1 2 3 5 5 4 5 5 5 4 4 3 3 4 3 3 3 3 4 4 4 3 3 4 4 4 5 5 7 11
10 11 11 13 13 13 11 12 10 9 9 10 10 10 9 8 9 10 12 10 8 8 8 8 8 8 7 8 8 8 8 8 8 7 7 7 7 5 5 5 5 6 6 7 7 7 6 5 3 3 5 3 2 3 2 2 1 5 2 2 5 3 5 3 4 4 3 3 2 2 2 3 3 3 3 3 3 3 3 4 4 4 5 5 6
12 11 14 14 12 11 12 11 9 10 11 12 10 10 10 10 9 10 8 8 8 8 9 7 8 7 8 8 8 8 8 8 8 8 8 7 7 6 5 6 6 6 7 6 4 4 5 5 4 2 2 4 3 3 4 3 1 1 4 5 2 4 4 1 2 3 3 2 1 1 2 3 3 3 3 3 3 4 3 4 3 4 4 5 5
12 14 14 12 13 12 12 11 10 11 11 11 10 11 10 10 10 8 8 5 5 7 7 6 6 7 8 9 9 9 9 8 8 8 8 8 8 7 7 6 6 6 6 5 5 5 6 6 6 6 3 1 2 1 3 4 2 1 1 2 4 7 3 2 2 3 2 2 2 1 2 2 2 3 3 3 4 4 4 3 4 4 5 5 5
12 13 12 13 11 11 11 12 12 11 10 11 11 10 10 9 8 7 6 8 6 5 6 6 8 9 10 10 10 10 9 9 8 8 8 7 8 8 7 7 6 6 7 7 6 6 5 4 6 6 4 3 2 4 4 5 3 3 3 1 1 1 8 2 2 5 3 2 2 2 1 2 3 3 4 6 5 6 6 4 4 4 4 4 5
15 14 13 13 11 15 15 14 13 12 11 11 13 10 7 6 5 4 3 4 2 6 7 8 9 10 10 10 11 8 9 9 9 9 8 8 8 7 7 7 6 7 6 7 6 8 8 7 7 5 7 7 5 3 1 3 4 3 2 1 1 1 4 3 4 4 2 0 0 2 2 3 4 4 4 5 4 5 4 5 5 5 4 4 4
14 15 13 13 14 14 14 14 12 11 12 12 12 10 10 10 9 9 8 9 10 9 11 14 11 10 11 6 6 9 9 8 8 9 9 8 8 8 7 7 7 6 6 7 7 5 4 6 8 8 7 6 6 3 3 1 4 4 4 3 2 4 1 2 1 5 3 1 2 1 1 0 0 4 5 6 5 6 5 6 5 6 5 5 4
16 11 9 12 14 14 13 13 12 12 12 11 11 11 11 11 14 14 12 12 13 11 9 8 9 7 4 6 6 6 8 9 8 8 8 8 8 7 8 8 7 6 6 6 6 6 7 8 6 6 8 6 4 4 5 4 1 3 4 4 2 0 1 1 4 1 6 4 1 1 1 1 1 4 4 4 4 6 6 5 5 5 6 5 5
14 10 12 13 15 15 13 14 13 12 11 11 12 14 14 13 13 14 13 13 13 13 10 9 5 4 6 7 5 6 8 9 8 8 8 8 8 7 7 7 7 7 7 7 7 7 5 4 6 6 4 5 7 7 5 5 5 2 3 5 2 1 1 1 2 4 3 5 8 1 0 2 3 2 1 3 6 6 6 7 6 5 6 5 5
8 13 14 13 13 12 13 12 13 13 12 12 13 14 14 13 13 12 13 12 11 10 6 6 6 6 8 7 7 7 7 8 9 8 8 8 8 8 7 7 7 8 8 7 6 6 7 7 6 5 6 6 6 6 4 5 5 5 3 1 1 1 2 0 2 2 4 2 6 5 6 1 1 1 2 2 3 6 6 5 5 5 4 5 5
12 10 9 8 9 10 12 13 15 13 12 12 13 13 13 11 12 14 15 13 10 7 6 7 7 7 9 8 8 8 7 7 8 9 9 9 8 8 8 9 9 8 7 8 7 6 6 6 7 7 6 6 4 5 6 4 5 4 4 4 3 2 2 1 1 2 0 2 6 4 5 7 9 2 3 4 5 6 6 4 5 5 4 4 5
7 9 9 10 9 10 12 14 15 11 11 13 13 14 13 13 14 15 16 15 12 10 9 8 7 7 9 9 9 8 7 8 7 8 9 9 8 8 8 8 7 7 7 7 7 7 7 7 6 5 5 6 5 5 5 3 4 5 4 5 6 6 6 5 5 4 4 2 1 4 4 4 4 9 1 2 7 7 5 4 4 4 4 5 4
Wind_Direction
187 163 186 152 150 141 149 158 155 154 127 117 109 101 102 97 92 86 96 101 93 87 86 82 81 78 76 81 85 77 80 87 81 76 80 79 78 74 78 80 79 80 78 78 78 78 77 78 78 77 77 76 76 76 75 74 72 71 70 71 71 71 71 69 67 67 67 62 66 69 72 81 83 80 77 76 74 72 69 67 65 64 62 62 63
161 170 159 148 147 150 148 149 159 134 120 114 113 112 106 106 104 103 107 98 100 97 91 91 90 88 81 75 78 81 77 74 80 82 76 77 79 81 82 85 87 86 82 80 79 77 76 78 79 77 76 77 76 76 76 75 75 74 73 73 72 71 69 69 67 64 63 66 65 68 67 71 74 78 79 76 75 72 70 70 68 63 59 63 61
141 146 153 157 151 152 153 151 131 116 124 126 121 115 105 102 104 107 100 100 97 95 95 96 96 93 88 82 79 82 82 79 79 82 88 84 80 80 82 83 77 79 80 78 76 76 77 81 81 78 76 75 77 76 76 76 76 77 77 77 76 76 75 71 68 65 59 60 61 59 62 67 70 73 74 73 71 69 66 66 65 65 65 66 63
137 149 150 155 147 156 158 147 131 120 124 120 121 116 110 107 105 102 105 101 93 99 101 102 102 101 97 90 83 80 83 87 86 86 84 85 88 86 86 85 87 90 87 84 80 81 82 82 81 78 77 76 78 79 79 79 79 79 79 78 77 77 75 70 66 64 62 61 62 62 51 42 60 71 72 71 69 67 64 63 62 63 64 64 65
135 146 149 148 158 154 154 157 129 123 124 124 119 121 119 110 108 98 89 98 98 97 96 93 96 100 100 97 94 97 94 91 87 84 83 82 84 87 86 89 88 86 85 84 83 85 86 85 82 79 76 77 78 82 83 82 81 81 80 79 79 77 72 67 64 61 59 57 56 50 41 34 46 69 73 72 70 68 68 68 66 63 61 62 64
143 143 138 141 150 161 155 153 140 124 131 130 129 139 124 119 117 105 114 118 107 103 95 101 104 107 103 99 96 85 89 87 85 83 85 88 86 82 82 86 87 83 79 82 83 83 84 83 83 81 81 80 80 82 84 83 83 82 82 83 81 74 71 69 66 62 57 55 48 47 41 40 46 61 72 72 71 66 69 68 68 68 66 63 62
137 136 133 130 138 145 146 149 146 134 135 137 136 141 124 125 112 120 130 110 102 106 103 97 99 100 103 103 96 93 92 93 88 85 84 87 88 91 94 96 93 83 82 83 84 85 86 86 82 81 83 84 85 84 83 82 82 83 86 85 80 76 72 70 68 65 61 56 52 48 47 46 46 51 69 68 67 67 65 65 64 61 60 60 60
120 124 131 129 133 148 152 161 148 143 139 139 141 130 124 114 121 120 105 116 112 99 94 95 97 109 108 108 104 99 95 91 88 89 93 91 88 92 95 91 91 85 85 85 88 89 87 82 82 84 82 83 84 84 84 84 84 82 83 80 75 73 70 67 64 62 61 58 54 52 54 51 47 49 66 66 64 60 61 65 65 64 62 62 58
131 134 129 131 141 145 156 173 146 140 142 141 142 132 123 120 113 101 104 94 105 114 112 107 97 105 105 102 96 91 90 88 88 88 86 85 87 91 93 93 91 88 87 85 76 79 85 86 84 82 84 83 85 84 83 83 82 80 80 78 73 70 67 63 59 55 50 50 49 54 51 46 50 61 70 70 69 68 68 61 55 61 64 65 63
135 132 132 133 155 148 152 138 131 136 140 143 143 134 126 125 120 112 112 108 105 106 104 105 104 104 105 101 96 97 91 89 88 87 89 88 89 91 92 95 95 89 86 84 86 81 80 82 82 81 81 82 83 84 83 82 82 80 78 74 69 64 59 55 51 47 47 42 40 39 50 54 47 60 74 76 74 72 72 74 76 70 66 63 64
141 138 135 139 162 147 139 127 132 139 138 141 144 140 129 130 121 118 119 118 105 109 101 103 107 104 96 97 99 94 90 89 89 92 91 91 89 87 89 94 93 84 84 80 75 78 81 80 78 77 79 81 82 83 82 81 82 81 78 78 75 72 67 62 56 52 48 46 47 39 35 52 57 48 74 77 76 74 70 70 67 64 60 60 59
140 144 143 148 168 142 132 130 138 142 144 139 144 144 132 134 122 124 123 120 121 120 111 105 106 102 99 103 94 91 91 91 94 93 93 94 94 90 90 91 98 89 83 81 79 77 75 75 79 80 79 80 82 82 83 80 80 79 79 77 76 73 68 65 64 57 52 47 47 41 45 47 62 76 70 71 73 75 73 69 66 65 64 61 59
146 151 152 153 150 137 133 138 137 142 147 139 146 143 134 130 125 127 128 131 129 132 121 117 105 102 104 99 95 93 93 94 95 94 93 93 93 92 91 95 96 94 88 84 82 81 82 83 82 82 82 81 81 82 81 83 81 80 79 78 75 70 64 59 57 54 47 41 37 29 21 9 24 64 68 73 69 65 62 59 58 58 60 63 61
153 155 162 150 146 141 136 133 132 149 148 134 135 133 125 121 124 130 129 132 123 122 124 110 111 114 111 105 101 98 98 98 99 99 94 92 95 96 93 95 99 99 94 90 87 86 87 87 86 86 86 84 84 83 84 85 84 82 79 76 71 67 60 56 50 50 46 38 30 27 24 23 49 67 73 72 70 68 65 65 66 62 56 53 50
157 157 159 150 148 141 136 131 131 125 118 132 131 132 130 128 130 129 128 135 139 129 121 123 89 101 114 109 102 99 94 93 94 91 92 93 93 93 92 92 97 101 99 96 93 89 87 87 88 89 88 88 86 87 88 86 86 82 79 74 68 59 60 57 48 41 40 34 24 31 20 11 71 74 71 71 73 83 77 73 63 60 62 58 52
158 157 149 156 146 143 135 136 131 120 99 104 124 133 132 121 120 130 136 144 149 144 129 118 90 88 92 98 100 98 97 96 96 98 93 97 100 99 99 97 98 97 97 99 95 90 88 86 86 89 87 87 87 86 87 87 86 83 78 71 62 55 59 59 47 39 34 29 24 25 6 358 67 64 74 83 84 79 67 60 58 55 58 62 59
155 157 159 159 151 144 140 134 135 123 114 110 111 119 120 123 128 135 140 138 152 137 136 128 102 107 105 104 101 99 100 100 95 79 80 98 104 102 101 102 101 102 100 100 100 92 88 85 83 83 84 83 85 86 86 86 85 83 76 66 59 58 55 57 54 33 32 27 20 7 359 352 62 86 88 83 64 52 58 59 57 52 46 47 50
160 162 172 163 156 150 143 133 129 122 123 118 117 120 124 124 124 120 109 80 106 93 81 86 92 95 94 92 94 92 93 86 77 66 61 62 67 70 93 104 107 104 104 104 101 94 86 84 82 81 82 81 81 83 82 83 83 77 73 62 62 63 55 53 54 37 31 26 18 359 355 351 84 71 59 52 59 64 65 54 54 50 46 49 48
165 171 171 167 168 157 148 137 134 128 130 127 128 128 127 126 128 130 98 107 100 104 104 100 99 98 95 95 94 91 85 79 76 75 72 71 69 70 79 99 111 110 108 107 96 86 76 73 77 78 77 77 75 73 75 74 74 71 69 69 67 59 51 45 38 38 33 26 3 6 337 3 67 52 47 59 54 56 47 49 52 50 49 46 42
171 174 175 174 176 162 159 146 142 141 137 135 137 134 134 133 134 124 116 115 113 111 111 110 107 101 99 100 97 91 83 77 78 70 73 69 66 68 66 79 105 110 106 101 97 88 74 73 74 72 69 70 68 61 58 63 65 66 68 70 60 52 47 33 32 32 29 14 12 4 10 9 67 76 70 70 64 45 43 41 52 46 43 30 38
174 178 182 186 181 171 165 160 150 146 142 139 141 142 144 137 132 127 127 125 123 119 111 110 109 108 106 102 97 93 90 85 77 78 73 73 75 72 71 63 64 91 105 98 86 81 76 75 73 69 64 61 60 57 50 51 48 50 65 66 56 54 34 41 29 20 23 14 11 354 2 22 13 39 66 42 40 41 40 40 17 33 23 34 26
177 184 181 190 188 179 174 167 154 156 149 141 148 146 146 137 136 135 134 130 125 122 119 121 117 116 113 105 105 105 101 99 92 91 84 84 79 80 75 70 66 70 73 80 73 79 84 66 64 63 63 62 61 63 44 39 46 48 50 52 46 35 21 23 36 8 2 357 10 341 10 357 335 7 66 36 49 41 38 339 35 18 24 21 24
183 180 183 192 191 183 181 172 167 154 158 155 153 154 149 139 142 141 138 136 137 130 132 124 128 128 120 116 111 110 110 101 103 106 100 87 85 89 86 80 77 75 73 63 61 56 56 57 59 60 54 51 55 61 61 49 40 45 54 51 54 26 18 18 1 0 322 305 328 342 359 2 22 351 39 13 14 20 8 53 11 22 14 16 11
175 182 181 185 190 189 186 183 173 164 163 159 143 152 158 151 150 147 143 143 140 141 138 138 138 137 134 127 122 114 106 106 97 96 96 90 79 69 78 78 70 63 69 64 43 39 42 51 55 52 42 38 46 41 61 81 58 35 41 52 44 39 51 357 351 321 319 323 322 328 346 345 351 323 18 173 106 183 229 336 41 323 34 321 342
172 164 173 187 192 195 185 187 177 172 170 170 159 165 156 159 148 156 154 152 152 146 147 147 148 143 141 134 130 120 104 94 92 81 95 98 80 77 63 67 70 68 43 70 34 16 26 9 18 33 30 27 36 18 21 42 74 68 47 9 31 18 14 29 327 328 314 318 316 327 334 329 313 310 321 324 319 337 268 282 209 202 224 318 290
161 182 192 186 192 191 187 189 176 179 175 186 184 168 164 170 168 165 161 163 159 161 158 158 158 154 148 139 125 117 112 110 109 112 97 107 111 111 102 85 80 93 61 83 52 38 29 24 30 43 14 32 51 33 24 73 43 70 72 46 30 22 0 302 329 311 305 316 309 323 324 324 322 314 315 317 332 293 271 245 246 275 301 273 266
179 192 183 188 190 189 188 189 181 183 190 181 180 164 185 186 184 165 165 165 169 165 177 173 172 162 154 152 142 135 127 133 131 134 158 131 147 148 139 110 127 128 101 115 72 38 54 52 53 60 15 19 5 29 46 39 50 63 59 57 56 44 356 308 278 263 276 295 304 307 312 315 314 313 311 305 302 296 279 259 255 302 303 296 261
186 191 190 184 188 192 187 188 191 194 194 177 188 187 191 188 191 171 187 177 171 181 182 181 165 171 167 167 156 157 155 151 157 162 193 151 186 169 127 139 142 146 112 133 125 43 54 73 110 82 57 20 352 0 30 23 27 54 36 5 359 349 319 294 278 263 264 270 278 291 295 299 301 304 302 301 301 303 291 271 271 280 298 300 304
196 192 190 191 192 188 186 194 193 193 194 179 190 187 190 193 186 186 193 175 188 189 180 162 175 176 175 168 164 159 162 164 174 186 154 196 184 178 177 191 181 167 151 200 157 159 144 109 110 116 98 28 4 333 348 332 35 35 25 329 328 322 320 305 281 290 293 283 288 286 290 291 295 299 302 303 305 302 303 300 294 291 293 298 291
202 189 187 196 190 185 191 196 191 193 191 180 190 189 189 195 195 195 196 177 200 188 164 179 183 172 184 185 183 171 174 175 180 171 172 204 199 184 191 205 191 182 163 218 204 164 189 157 164 143 128 34 321 308 359 328 331 336 356 305 288 274 281 289 308 297 278 286 276 281 287 289 292 296 299 302 301 301 300 300 302 303 301 294 288
197 198 194 192 188 188 196 196 192 190 190 190 188 192 188 197 189 190 193 196 194 176 181 183 181 187 187 182 185 183 175 177 176 180 191 196 198 197 216 202 213 209 186 219 185 195 183 188 193 208 212 211 242 222 183 278 285 298 299 320 290 311 281 280 284 294 297 285 281 272 282 290 290 291 297 301 303 303 302 301 299 300 301 303 303
203 205 197 187 187 194 194 194 193 190 194 192 186 191 192 196 189 187 195 195 189 189 188 182 188 192 184 182 185 188 181 186 183 183 188 189 200 207 214 198 228 214 199 206 207 201 198 197 184 193 196 183 276 305 239 324 307 299 343 310 305 307 297 279 274 274 272 277 283 285 286 288 293 297 300 299 301 304 305 305 306 303 301 301 303
207 206 199 191 197 191 194 193 192 192 197 195 190 192 191 190 192 194 193 192 193 194 194 191 190 190 183 184 188 188 187 188 193 190 190 189 193 199 212 220 229 214 204 209 203 191 195 217 258 115 66 1 333 327 356 358 323 315 337 310 331 310 308 316 301 302 291 293 300 300 297 303 308 312 308 312 318 320 320 321 322 322 318 317 315
199 198 196 205 198 195 192 189 192 196 198 199 194 194 194 192 193 194 193 191 198 198 203 197 190 188 186 189 189 188 189 194 185 194 185 189 191 197 208 226 223 208 199 190 209 200 215 218 244 332 293 321 293 313 352 321 308 304 308 321 330 303 319 311 294 284 282 283 277 284 287 296 298 305 318 324 329 332 332 331 329 327 326 324 323
192 193 199 202 197 196 188 195 190 197 195 201 199 198 193 193 193 195 193 192 196 201 203 197 193 191 185 194 190 187 191 190 191 185 189 189 191 205 210 227 198 188 193 205 206 218 210 228 202 219 261 289 289 293 280 272 290 303 302 318 302 296 303 287 296 298 302 298 293 277 269 272 288 304 320 327 333 337 333 332 330 328 326 326 323
198 196 199 196 199 197 190 195 190 197 198 201 201 197 195 195 196 196 194 190 195 202 201 198 196 192 188 192 193 193 192 193 190 188 186 191 196 202 217 213 187 176 199 182 179 208 218 233 224 192 240 274 308 294 60 274 283 283 281 285 277 287 290 293 289 290 289 307 293 296 310 313 317 320 333 341 332 327 332 334 330 329 329 326 322
198 195 200 197 200 199 195 198 195 199 200 199 201 200 196 196 196 197 200 191 195 203 204 197 196 194 191 194 193 196 198 196 195 191 193 194 199 206 217 198 175 180 178 179 194 211 194 218 228 206 195 245 255 266 294 259 273 269 286 286 282 283 283 278 285 283 311 289 292 302 317 314 323 337 1 350 337 334 331 331 329 327 325 324 324
201 202 201 198 200 198 200 202 201 199 200 199 200 202 199 195 197 200 200 203 203 201 204 197 202 196 188 197 195 194 198 200 197 192 198 201 199 204 207 176 172 176 179 174 210 191 207 196 233 211 196 204 240 245 263 257 247 281 288 283 286 273 273 278 276 288 286 291 301 311 299 300 332 359 352 335 335 337 332 327 325 325 321 324 327
204 203 202 200 200 204 204 205 202 196 199 199 201 203 199 199 200 200 203 209 208 206 200 205 207 198 194 194 195 198 197 198 196 190 197 200 199 203 193 185 172 179 179 196 209 202 209 212 219 239 210 213 223 230 243 270 286 288 284 282 283 278 279 275 276 277 277 276 292 286 304 323 359 358 336 336 338 335 325 325 331 329 324 325 327
209 203 204 201 205 205 204 205 205 198 195 197 195 200 199 202 198 199 209 207 207 203 205 209 201 209 205 195 198 200 197 199 195 191 195 198 199 197 194 174 177 170 180 190 214 202 208 205 222 215 220 229 234 242 240 275 297 273 268 278 271 272 279 271 282 271 291 281 267 283 311 330 0 342 343 328 330 323 324 330 334 328 325 322 326
215 207 204 208 207 205 196 207 201 197 194 198 198 195 195 196 206 202 211 206 207 204 207 207 205 208 203 206 200 201 199 197 195 189 196 193 200 197 181 176 174 177 183 202 206 208 203 201 204 192 213 225 262 210 197 157 347 309 309 303 313 272 261 300 286 301 281 264 282 312 331 340 359 351 316 323 327 330 337 335 330 323 321 327 326
218 209 212 211 208 208 208 206 197 201 203 201 198 201 204 206 202 212 212 204 203 202 209 206 207 202 201 205 207 204 202 202 195 191 195 193 195 194 188 187 179 188 198 207 196 181 175 191 184 190 198 197 230 189 201 146 347 227 325 324 323 311 303 1 344 311 314 342 354 2 343 349 329 318 318 339 347 344 328 319 318 314 317 323 325
214 212 214 207 207 208 213 207 206 202 206 201 198 206 206 208 205 210 204 206 211 207 210 202 196 201 203 206 205 205 203 206 197 193 195 195 198 193 199 193 189 183 189 204 196 195 189 193 185 195 203 253 249 244 189 192 212 163 112 351 323 351 331 353 331 313 334 4 18 12 346 322 322 329 328 351 347 333 323 323 318 316 320 329 324
214 219 214 210 207 211 211 210 213 207 202 201 204 206 206 207 211 205 198 198 200 195 201 200 198 200 209 205 209 205 199 203 201 195 198 198 196 198 196 192 195 187 190 198 197 207 189 193 189 205 175 195 218 245 195 197 159 127 304 213 245 55 316 346 309 282 304 327 17 309 7 330 359 355 5 10 337 323 331 335 318 320 325 322 322
213 214 208 204 205 207 208 208 210 206 202 200 201 199 191 193 194 190 186 200 179 189 203 211 204 204 209 205 208 197 200 202 199 201 197 200 197 199 195 197 193 192 192 202 201 208 202 195 186 182 183 201 228 227 221 178 203 208 155 111 336 19 227 269 344 288 1 57 341 2 348 14 15 0 358 326 317 318 337 328 327 336 333 328 330
216 217 207 206 205 208 206 206 207 206 206 203 197 189 194 193 188 193 194 203 208 197 200 208 208 207 213 200 187 193 197 201 201 202 202 200 201 198 196 192 196 192 193 205 211 206 200 189 195 192 200 204 203 177 204 247 213 217 227 221 180 228 217 245 30 299 316 187 294 291 241 312 63 356 337 327 331 329 332 330 333 330 329 333 334
220 209 205 212 211 211 206 203 205 208 205 201 190 190 199 201 201 204 205 208 215 219 218 219 217 216 196 195 198 187 195 199 203 203 204 202 202 196 193 195 195 194 194 199 208 208 208 208 187 181 203 189 167 203 201 198 72 264 233 245 289 60 144 140 239 334 312 318 279 310 23 106 55 2 345 331 329 339 326 329 326 326 325 336 343
208 189 208 210 208 209 201 201 204 207 203 195 192 195 201 203 205 208 209 214 214 221 211 216 205 190 193 202 190 194 194 199 203 203 205 202 202 198 195 196 195 198 187 199 207 211 207 195 184 196 178 177 180 195 213 177 180 224 193 226 222 93 110 191 172 201 242 289 304 296 57 335 4 8 350 342 333 333 325 324 328 330 330 330 352
188 201 208 207 208 206 205 203 206 206 204 195 196 200 204 202 204 207 214 219 218 222 209 194 191 182 198 195 196 198 195 198 198 203 203 205 199 199 194 201 202 200 190 199 211 201 196 189 180 176 185 195 189 196 178 191 188 200 131 115 117 115 89 143 168 144 189 197 286 304 306 281 72 317 342 344 327 321 313 304 308 307 320 324 5
207 207 209 203 207 205 204 203 209 206 200 197 198 202 202 200 205 209 214 216 210 210 189 200 195 185 204 202 200 201 199 198 200 200 201 204 201 200 196 206 209 200 188 199 193 189 191 191 190 188 185 190 185 181 196 189 180 171 173 153 139 97 94 51 105 149 66 197 247 284 306 316 324 285 354 344 334 323 316 323 322 328 327 16 4
203 199 203 200 199 201 204 207 212 203 197 200 195 202 200 202 209 210 212 214 206 200 201 205 191 191 206 206 202 203 195 199 195 200 200 197 200 199 197 201 198 193 189 187 190 190 192 186 186 185 179 184 180 186 201 191 167 158 166 167 186 172 180 186 190 197 168 184 269 272 272 249 250 307 336 323 327 313 306 322 321 316 360 18 4